GEFSCGP_con_cape1000_144.txt.gz
Probability
0 0 0 0 0 0 0 0 0 0 0 0 0 3 3 16 13 19 32 58 71 71 81 81 81 81 84 84 87 81 77 87 81 77 71 74 74 81 81 77 81 77 81 81
0 0 0 0 0 0 0 0 0 0 0 0 0 3 6 6 16 23 29 42 52 68 77 74 74 77 81 81 84 81 84 84 74 77 71 74 77 84 81 81 77 74 71 77
0 0 0 0 0 0 0 0 0 0 0 0 0 3 6 10 10 13 23 42 48 61 71 77 68 71 65 81 74 71 81 77 74 77 74 71 68 71 74 77 77 77 71 71
0 0 0 0 0 0 0 0 0 0 0 0 0 0 10 13 6 13 29 35 45 58 71 74 74 61 61 65 68 71 77 74 74 77 71 61 55 58 68 74 74 77 71 74
0 0 0 0 0 0 0 0 0 0 0 0 0 0 3 16 13 16 23 32 42 52 58 68 65 65 58 55 55 65 71 68 74 68 74 71 61 71 77 74 74 77 74 71
0 0 0 0 0 0 0 0 0 0 0 0 0 0 3 13 13 16 26 35 35 45 52 61 55 61 45 48 52 55 68 65 61 61 61 68 71 65 74 74 71 77 77 77
0 0 0 0 0 0 0 0 0 0 0 0 0 0 6 3 0 13 26 35 35 48 52 52 48 52 52 48 48 52 58 58 58 61 52 61 61 71 74 74 81 74 58 65
0 0 0 0 0 0 0 0 3 0 0 0 0 0 0 6 3 16 23 32 42 48 55 52 45 52 52 48 48 48 45 48 45 55 55 55 55 55 68 74 68 61 52 61
0 0 0 0 0 0 0 0 0 0 0 0 0 0 0 10 6 6 26 26 29 45 52 42 42 45 45 48 45 39 45 42 48 48 52 52 52 45 58 71 74 58 61 52
0 0 0 0 0 0 0 0 0 3 6 0 0 3 3 10 10 16 29 29 32 45 45 42 48 48 48 45 48 45 45 48 48 52 48 45 48 42 61 65 65 65 61 52
0 0 0 0 0 0 0 0 0 0 10 0 0 3 3 19 23 26 26 35 52 45 48 45 48 45 48 45 45 45 45 45 42 45 48 52 48 52 58 68 65 65 65 58
0 0 0 0 0 0 0 0 0 3 3 0 0 0 0 6 13 23 23 23 55 48 45 42 45 45 45 42 42 42 42 42 42 45 52 52 58 55 58 61 68 65 61 61
0 0 0 0 0 0 0 0 0 0 6 0 0 0 3 6 13 19 23 32 58 58 52 61 61 58 55 48 52 42 39 48 52 42 45 55 58 58 61 65 68 61 55 58
0 0 0 0 0 0 0 0 0 0 3 3 0 0 3 16 23 23 39 39 55 65 74 74 81 74 61 61 55 48 48 45 45 48 45 61 61 61 68 68 65 65 61 61
0 0 0 0 0 0 0 0 0 0 0 0 3 3 13 19 26 32 48 45 61 71 77 81 81 90 81 71 61 61 55 52 58 58 58 71 58 65 65 71 77 71 71 61
0 0 0 0 0 0 0 0 0 0 0 0 6 13 19 26 29 42 32 52 68 68 68 77 77 81 77 77 71 61 61 65 68 58 55 68 68 68 68 74 77 81 74 74
3 10 0 0 0 0 0 0 0 0 0 3 6 26 32 32 29 35 42 39 48 58 55 65 71 77 77 77 84 87 81 74 74 77 68 71 71 74 74 71 74 81 81 74
16 29 26 0 0 0 0 0 0 0 6 16 26 29 29 35 42 39 29 45 52 61 61 61 65 71 74 74 84 81 77 81 81 81 77 74 65 71 77 74 77 77 77 74
0 16 6 3 3 0 0 0 3 3 10 13 26 29 29 29 32 32 42 42 55 61 65 74 61 65 68 74 74 74 74 74 74 77 74 74 71 71 71 74 77 77 74 74
6 13 0 0 0 0 0 0 3 13 16 16 19 19 19 16 32 39 35 39 39 42 42 55 55 65 68 71 71 74 71 74 74 74 74 74 74 68 65 68 68 74 71 71
3 3 3 0 0 0 0 3 0 0 16 19 16 19 29 42 35 32 32 29 29 32 35 42 52 52 55 61 71 65 68 65 68 71 68 65 61 61 65 68 61 61 55 52
3 0 0 0 0 0 3 3 13 32 29 16 13 23 26 26 23 26 26 29 29 29 29 32 45 42 42 45 48 48 48 58 65 55 52 52 52 48 45 61 58 48 42 39
0 0 3 6 10 16 10 23 26 26 23 16 13 16 16 16 19 29 23 23 19 26 29 29 29 29 29 29 39 39 39 42 39 39 39 42 39 35 32 35 32 29 29 32
6 10 10 6 3 13 16 16 16 13 6 6 16 16 16 19 19 13 10 10 16 16 19 19 19 19 19 23 26 26 32 35 39 35 32 29 26 19 26 23 19 26 26 16
0 6 10 6 6 6 6 13 6 3 6 10 16 16 13 0 3 6 6 6 6 6 10 6 6 10 10 13 16 19 26 26 23 23 19 16 16 16 19 16 10 13 13 10
0 0 0 6 10 10 6 6 6 6 10 13 10 3 0 0 0 0 6 6 6 6 6 6 6 6 6 6 10 13 13 16 19 19 19 19 19 19 13 6 6 0 0 0

GEFSCGP_con_cape1000_150.txt.gz
Probability
0 0 0 0 0 0 0 0 0 0 0 0 0 3 6 6 16 19 35 45 52 68 68 71 81 74 71 65 65 52 65 42 35 39 39 45 39 29 23 26 26 26 26 23
0 0 0 0 0 0 0 0 0 0 0 0 0 3 3 3 13 16 29 42 55 52 71 71 77 68 71 68 61 58 55 48 35 29 32 35 32 23 16 23 19 26 19 19
0 0 0 0 0 0 0 0 0 0 0 0 0 0 3 6 6 6 19 26 42 52 65 71 68 61 61 55 55 55 55 55 39 32 29 23 13 16 16 19 19 19 16 16
0 0 0 0 0 0 0 0 0 0 0 0 0 0 0 3 10 10 13 23 39 52 55 58 58 61 58 55 52 52 58 52 39 35 26 19 23 16 19 19 19 16 13 10
0 0 0 0 0 0 0 0 0 0 0 0 0 0 0 0 13 10 10 16 26 48 52 45 55 58 52 52 55 55 52 45 42 29 32 19 13 13 6 10 13 6 10 10
0 0 0 0 0 0 0 0 0 0 0 0 0 0 0 0 10 13 13 16 23 42 48 39 42 42 42 48 48 45 42 32 32 26 23 16 13 13 6 10 10 3 3 6
0 0 0 0 0 0 0 0 0 0 0 0 0 0 0 0 3 10 10 6 19 29 39 35 32 32 35 42 42 39 35 32 29 26 23 13 6 10 13 6 3 3 3 3
0 0 0 0 0 0 0 0 0 0 0 0 0 0 0 0 3 3 3 10 19 23 29 29 35 32 32 35 39 29 29 29 26 26 19 13 10 3 3 0 0 0 0 3
0 0 0 0 0 0 0 0 0 0 0 0 0 0 0 0 0 0 10 13 16 19 26 29 26 29 26 29 32 29 26 23 19 23 13 6 6 3 3 0 0 0 0 0
0 0 0 0 0 0 0 0 0 0 0 0 0 0 0 0 3 3 3 13 19 13 26 23 19 26 23 29 26 26 26 19 13 10 6 3 3 3 0 0 0 0 0 0
0 0 0 0 0 0 0 0 0 0 0 0 0 0 0 0 3 3 3 6 13 10 19 26 26 23 23 26 19 19 16 16 10 13 6 6 0 3 0 0 0 0 0 0
0 0 0 0 0 0 0 0 0 0 0 0 0 0 0 3 3 3 3 6 10 6 13 19 23 16 16 16 19 16 13 13 13 16 10 3 0 0 0 0 0 0 0 0
0 0 0 0 0 0 0 0 0 0 0 0 0 0 0 0 3 3 3 6 6 6 13 10 16 16 16 16 16 19 19 16 6 10 6 10 10 3 0 0 0 0 0 0
0 0 0 0 0 0 0 0 0 0 0 0 0 0 0 0 3 3 3 6 6 10 10 13 13 16 16 16 16 19 23 19 16 10 10 10 10 10 3 0 0 0 0 0
0 0 0 0 0 0 0 0 0 0 0 0 0 0 0 3 0 0 3 6 13 10 6 13 10 10 10 16 13 16 16 13 10 13 13 10 10 6 6 0 0 0 0 0
0 0 0 0 0 0 0 0 0 0 0 0 0 0 0 3 6 19 16 23 23 23 13 6 10 10 16 19 16 16 16 10 10 13 13 10 13 6 3 0 0 0 0 0
0 0 0 0 0 0 0 0 0 0 0 0 0 3 6 6 6 10 10 16 23 32 26 10 6 6 6 13 16 19 16 10 10 10 10 10 13 10 6 6 0 0 0 0
0 0 0 0 0 0 0 0 0 3 6 6 0 10 10 10 6 6 0 0 13 19 29 16 13 13 13 6 10 19 19 13 10 10 10 13 10 6 6 6 3 0 0 0
0 0 0 0 0 0 0 0 0 0 0 3 10 3 6 6 6 6 10 10 10 10 16 16 16 10 10 6 6 13 19 16 13 10 10 10 13 6 3 3 6 3 0 3
0 0 0 0 0 0 0 0 0 0 6 10 13 3 3 3 3 13 10 10 13 10 13 13 19 16 13 10 10 13 16 13 10 6 6 6 10 3 6 6 6 3 3 3
0 0 0 0 0 0 0 0 0 0 3 6 6 6 3 0 3 3 10 3 10 6 6 13 13 19 13 13 10 13 13 16 13 10 3 3 6 6 3 3 3 3 3 3
0 0 0 0 0 0 0 0 3 3 3 3 3 3 6 6 3 6 6 10 6 6 3 6 13 16 13 6 10 10 6 6 6 10 6 6 6 3 3 3 3 3 3 3
0 0 0 0 0 0 0 3 0 3 3 6 3 3 3 6 0 0 3 3 3 3 3 3 3 0 3 6 6 3 6 0 6 10 6 6 6 3 3 3 3 3 3 3
0 0 0 0 0 3 3 3 0 3 3 3 3 3 0 0 0 0 0 0 0 0 0 0 0 0 0 0 0 0 3 3 0 6 6 6 3 3 3 3 6 3 3 3
0 0 0 0 3 3 0 0 0 3 3 3 0 0 0 0 0 0 0 0 0 0 0 0 0 0 0 0 0 0 0 0 3 3 6 6 6 3 3 3 3 3 3 3
0 0 0 0 3 0 0 0 6 6 3 0 0 0 0 0 0 0 0 0 0 0 0 0 0 0 0 0 0 0 0 0 0 3 6 6 6 6 3 3 0 0 0 0

GEFSCGP_con_cape1000_156.txt.gz
Probability
0 0 0 0 0 0 0 0 0 0 0 0 0 0 3 16 23 23 26 32 52 52 48 48 61 65 71 48 48 42 42 35 35 29 19 19 16 16 16 16 16 19 19 13
0 0 0 0 0 0 0 0 0 0 0 0 0 0 0 16 23 23 26 26 29 55 52 45 48 71 65 52 39 45 35 26 23 29 19 16 13 13 16 19 16 16 13 13
0 0 0 0 0 0 0 0 0 0 0 0 0 0 3 10 13 13 13 13 29 35 39 55 52 55 52 55 45 45 32 23 19 16 13 16 13 6 16 10 10 13 10 10
0 0 0 0 0 0 0 0 0 0 0 0 0 0 0 0 6 10 13 16 26 23 35 39 45 45 42 48 39 39 26 19 16 16 16 13 6 10 10 10 10 10 10 10
0 0 0 0 0 0 0 0 0 0 0 0 0 0 0 0 10 3 6 10 13 16 26 35 42 42 42 42 39 26 26 23 23 23 19 16 10 10 10 10 10 10 6 3
0 0 0 0 0 0 0 0 0 0 0 0 0 0 0 0 0 0 0 6 16 16 29 39 45 48 45 32 26 32 26 23 19 23 23 19 13 6 6 6 6 6 3 3
0 0 0 0 0 0 0 0 0 0 0 0 0 0 0 0 0 0 0 3 13 19 29 35 39 39 26 32 26 29 26 19 16 19 19 13 13 3 6 6 6 6 3 3
0 0 0 0 0 0 0 0 0 0 0 0 0 0 0 0 0 0 6 10 10 19 26 32 29 29 23 23 19 23 23 16 13 16 16 19 6 3 0 3 6 6 6 3
0 0 0 0 0 0 0 0 0 0 0 0 0 0 0 0 3 3 13 13 10 13 16 26 29 16 13 16 19 16 16 13 16 10 16 16 13 3 0 0 3 3 3 3
0 0 0 0 0 0 0 0 0 0 0 0 0 0 0 0 0 3 6 10 13 13 10 13 16 10 13 16 16 16 16 13 6 10 10 13 6 3 0 0 0 0 0 0
0 0 0 0 0 0 0 0 0 0 0 0 0 0 0 0 0 3 3 6 10 19 13 10 10 10 13 16 13 13 13 10 3 3 3 6 6 6 6 0 0 0 0 0
0 0 0 0 0 0 0 0 0 0 0 0 0 0 0 0 0 3 6 3 13 16 10 13 6 10 10 13 13 13 6 6 6 3 0 3 3 3 3 0 0 0 0 0
0 0 0 0 0 0 0 0 0 0 0 0 0 0 0 0 3 3 3 3 3 6 3 6 10 10 10 10 10 10 10 10 0 0 0 3 3 0 3 0 0 0 0 0
0 0 0 0 0 0 0 0 0 0 0 0 0 0 0 0 0 0 0 3 3 3 3 3 3 6 13 6 6 6 10 6 0 0 3 3 0 0 0 0 0 0 0 0
0 0 0 0 0 0 0 0 0 0 0 0 0 0 0 0 0 0 0 0 0 0 3 3 3 3 3 6 10 10 10 3 3 6 6 3 0 0 0 0 0 0 0 0
0 0 0 0 0 0 0 0 0 0 0 0 0 0 0 0 0 0 0 0 0 0 3 6 6 3 0 3 6 6 3 6 6 6 6 6 3 0 0 0 0 0 0 0
0 0 0 0 0 0 0 0 0 0 0 0 0 0 0 0 0 3 3 0 0 0 0 0 6 3 0 3 6 3 0 0 3 6 6 6 3 3 0 0 0 0 0 0
0 0 0 0 0 0 0 0 0 0 0 0 0 0 0 0 3 6 6 0 0 0 0 0 0 0 3 3 0 3 0 0 3 3 3 3 0 0 0 0 0 0 0 0
0 0 0 0 0 0 0 0 0 3 0 0 3 6 3 3 3 6 6 3 0 0 0 3 3 0 3 3 3 0 0 0 0 0 0 0 3 3 0 0 0 0 0 0
0 0 0 0 0 0 0 0 0 0 0 0 6 6 3 0 0 3 6 3 3 0 0 0 0 3 3 3 6 3 3 0 0 3 3 0 3 3 0 0 0 0 0 0
0 0 0 0 0 0 0 0 0 0 0 3 3 3 0 0 0 3 3 3 0 0 0 0 0 3 3 3 0 0 0 0 3 3 3 3 3 3 3 3 0 0 0 0
0 0 0 0 0 0 0 0 0 0 3 3 3 3 6 6 3 0 0 3 0 3 0 0 0 0 3 0 0 0 0 0 0 3 3 3 3 3 3 3 3 0 0 0
0 0 0 0 0 0 0 0 0 3 3 3 3 3 3 3 0 0 0 0 0 0 0 0 0 0 0 0 0 0 0 0 0 0 0 3 3 3 3 3 3 3 3 0
0 0 0 0 0 0 0 0 0 3 0 0 0 0 0 0 0 0 0 0 0 0 0 0 0 0 0 0 0 0 0 0 0 0 0 0 3 3 3 3 3 3 3 3
0 0 0 0 0 0 0 0 0 0 0 0 0 0 0 0 0 0 0 0 0 0 0 0 0 0 0 0 0 0 0 0 0 0 0 0 3 3 3 3 3 3 3 3
0 0 0 0 0 0 0 0 0 0 0 0 0 0 0 0 0 0 0 0 0 0 0 0 0 0 0 0 0 0 0 0 0 0 0 0 0 3 6 3 3 0 0 0

GEFSCGP_con_cape1000_162.txt.gz
Probability
0 0 0 0 0 0 0 0 0 0 0 0 0 10 16 32 52 55 68 94 97 97 97 97 97 97 97 100 100 100 100 97 97 94 90 94 90 87 77 77 81 84 81 81
0 0 0 0 0 0 0 0 0 0 3 3 3 6 10 23 45 58 65 84 87 90 94 94 94 97 97 97 100 100 100 100 97 94 87 94 90 90 77 74 81 77 77 77
0 0 0 0 0 0 0 0 0 0 3 3 3 3 16 19 42 48 58 74 81 90 90 94 94 94 94 94 94 90 97 97 97 94 90 87 90 77 71 71 77 77 77 77
0 0 0 0 0 0 0 0 0 0 0 0 3 0 3 23 39 52 52 55 61 77 84 90 94 90 87 87 90 90 90 94 90 87 81 74 81 68 68 77 81 81 77 74
0 0 0 0 0 0 0 0 0 0 0 0 0 0 0 13 26 39 45 58 58 68 74 84 87 90 87 87 84 90 87 90 87 77 81 84 84 77 74 81 81 77 71 74
0 0 0 0 0 0 0 0 0 0 0 0 0 0 3 13 23 29 35 55 61 65 65 81 84 84 84 77 84 87 87 84 87 81 81 77 84 81 71 68 74 65 65 74
0 0 0 0 0 0 0 0 0 0 0 0 0 0 3 10 13 29 39 48 58 61 68 71 71 81 81 81 84 84 87 77 81 84 77 81 84 84 74 65 68 52 52 55
0 0 0 0 0 0 0 0 0 0 0 0 3 0 10 13 19 23 45 48 55 65 65 65 71 68 74 74 84 74 71 71 81 74 74 71 81 77 68 68 52 52 35 42
0 0 0 0 0 0 0 0 0 0 0 0 0 3 13 16 19 26 39 45 45 48 52 61 65 65 65 68 71 74 74 74 77 74 71 68 74 81 68 65 58 48 58 35
0 0 0 0 0 0 0 0 0 0 0 0 0 0 0 26 29 23 45 52 48 52 55 61 58 61 65 65 77 71 65 71 68 68 61 52 65 71 68 61 58 58 52 48
0 0 0 0 0 0 0 0 0 0 0 0 0 0 3 16 23 29 45 52 52 55 58 58 58 65 61 55 48 55 65 65 74 65 52 52 48 58 55 55 55 52 55 48
0 0 0 0 0 3 0 0 0 0 0 0 0 0 6 19 26 35 42 48 55 55 58 58 55 61 55 52 55 48 48 48 58 48 52 55 58 52 52 48 45 45 52 42
0 0 0 0 0 0 3 3 0 3 0 0 0 3 16 32 29 45 58 58 58 61 55 55 65 58 55 52 52 55 55 48 48 48 45 52 52 42 42 39 42 42 42 42
0 3 0 0 0 0 3 3 0 0 0 0 0 6 26 39 45 52 65 61 55 58 58 61 65 61 52 52 48 45 48 45 48 39 39 42 45 42 39 32 32 35 42 42
0 3 0 0 0 0 0 0 0 0 0 0 0 6 23 35 45 55 71 61 48 55 55 48 48 55 48 45 48 39 45 45 39 42 48 48 48 42 39 29 29 29 26 23
0 3 0 0 0 0 0 0 0 0 0 0 3 6 35 39 45 58 68 61 45 45 42 35 39 42 42 42 39 45 39 39 35 39 42 45 42 39 35 32 29 29 32 23
0 3 0 0 0 0 0 0 0 3 0 0 6 32 42 45 48 55 55 45 45 48 48 48 39 35 42 45 42 45 42 42 35 32 29 32 35 32 32 29 29 26 32 35
3 10 6 0 0 0 3 10 0 3 10 13 39 42 35 29 48 48 52 52 45 32 42 48 48 42 45 48 48 45 48 45 35 32 29 23 23 23 26 26 29 29 32 39
10 16 0 0 0 0 10 10 13 16 23 26 39 29 35 39 35 42 32 39 35 32 35 29 32 32 42 48 48 52 48 42 42 39 29 26 19 19 23 29 26 32 29 32
10 19 0 0 0 0 10 19 13 13 29 26 48 32 45 45 48 42 35 32 23 29 29 26 23 32 39 45 55 45 52 42 45 32 32 29 32 32 29 26 32 35 29 29
0 0 0 0 0 3 19 13 10 6 26 32 42 42 55 58 48 32 29 26 19 19 23 23 23 26 35 42 45 39 32 29 29 26 29 32 26 29 29 29 32 32 29 26
0 0 0 0 0 3 13 16 23 35 45 42 45 42 48 39 32 19 13 16 16 16 16 16 19 26 26 35 32 32 23 26 23 19 23 23 19 10 10 19 26 29 32 26
3 3 3 3 3 13 23 23 32 29 32 35 42 32 29 19 26 16 13 13 16 16 16 16 16 13 23 26 26 19 26 26 23 19 19 16 16 13 13 13 16 16 10 10
6 3 3 6 10 13 16 13 16 23 23 23 29 26 19 19 13 13 10 10 13 13 13 13 10 13 16 13 16 13 13 16 13 16 16 16 16 13 13 19 10 6 3 6
6 6 6 10 10 6 10 3 23 13 13 16 16 13 13 10 10 13 13 10 13 13 13 10 10 6 3 3 3 6 13 13 13 6 10 10 10 10 6 6 3 6 6 3
3 6 6 10 13 10 13 6 10 13 16 19 13 16 13 10 13 10 10 10 6 3 3 3 3 3 3 3 3 3 3 3 3 3 6 6 10 6 6 3 3 3 0 0

GEFSCGP_con_cape1000_168.txt.gz
Probability
0 0 0 0 0 0 0 0 0 0 0 0 0 0 3 6 16 26 52 65 90 97 97 100 100 97 97 97 97 97 100 100 97 97 97 90 87 87 84 84 90 84 87 87
0 0 0 0 0 0 0 0 0 0 0 0 0 0 0 6 16 29 52 61 81 97 97 97 97 97 97 97 97 97 97 100 100 97 97 97 90 90 84 87 84 84 84 84
0 0 0 0 0 0 0 0 0 0 0 0 0 0 0 6 16 35 35 65 71 90 97 100 97 97 97 97 97 97 97 100 100 100 97 100 97 94 87 87 84 84 84 84
0 0 0 0 0 0 0 0 0 0 0 0 0 0 10 13 19 26 35 55 71 81 94 100 97 97 97 97 97 97 97 100 100 100 97 97 87 87 87 87 81 81 84 84
0 0 0 0 0 0 0 0 0 0 0 0 0 0 3 10 10 29 42 48 55 77 87 100 94 97 94 94 94 97 97 100 100 100 97 97 100 97 94 90 90 81 81 77
0 0 0 0 0 0 0 0 0 0 0 0 0 0 0 3 13 13 23 39 65 68 81 97 94 94 94 94 90 94 97 100 100 97 97 97 94 97 94 90 77 77 81 77
0 0 0 0 0 0 0 0 0 0 0 0 0 0 10 6 3 10 19 35 45 58 81 97 94 90 90 87 90 90 97 97 100 97 97 97 90 87 94 87 74 74 71 74
0 0 0 0 0 0 0 0 0 0 0 0 0 0 6 10 3 16 29 48 52 58 68 81 87 81 77 87 90 87 90 90 94 94 90 90 87 84 87 90 71 74 71 71
0 0 0 0 0 0 0 0 0 0 0 0 0 10 16 13 16 23 29 45 45 52 71 71 81 77 84 87 84 84 87 90 87 90 87 84 84 81 81 87 84 77 71 68
0 0 0 0 0 0 0 0 0 0 0 0 0 3 13 26 29 32 32 35 42 61 61 68 74 81 84 87 84 84 87 87 84 84 77 77 74 77 84 81 74 74 65 58
0 0 0 0 0 0 0 0 0 0 0 0 0 3 10 26 32 26 29 48 55 61 65 71 74 74 77 71 77 81 90 87 84 84 81 84 77 74 74 81 81 74 77 68
0 0 0 0 0 0 0 0 0 0 10 3 0 6 10 16 26 29 39 52 61 61 71 74 74 81 74 77 77 81 77 81 74 81 81 81 77 74 71 71 77 74 71 61
0 0 0 0 0 0 0 0 0 0 0 0 0 3 10 16 26 35 45 58 61 74 74 74 84 74 77 74 81 81 77 74 74 81 77 77 74 71 71 68 71 65 61 61
0 0 0 0 0 0 0 0 0 0 0 0 0 6 13 19 32 48 58 77 68 74 87 87 87 84 81 81 84 77 68 71 71 74 74 74 71 71 65 65 65 65 55 55
0 0 0 0 0 0 0 0 0 0 0 0 3 6 23 29 42 48 71 74 71 71 74 84 87 81 81 71 74 65 61 74 65 71 74 71 68 61 61 55 52 52 52 39
0 0 0 0 0 0 0 0 0 0 0 3 3 10 23 48 45 55 71 71 77 81 77 84 71 71 77 71 61 65 58 61 61 61 65 68 61 61 55 52 48 52 45 42
0 3 3 0 0 0 0 0 0 0 3 3 6 16 39 52 55 61 65 68 71 77 71 74 71 71 71 68 74 61 61 58 48 45 45 52 55 52 48 35 39 35 35 45
3 6 10 0 0 0 0 0 0 6 6 3 16 35 45 61 58 68 81 87 81 74 61 65 65 65 71 61 68 61 61 55 52 45 39 39 45 48 45 42 39 42 39 32
6 16 3 0 0 0 0 0 3 6 10 23 42 55 55 55 58 65 74 74 68 65 68 65 55 48 48 52 55 61 58 52 52 45 42 39 35 42 35 35 35 32 32 29
0 13 6 0 0 0 6 3 10 13 26 35 48 58 61 61 52 65 61 58 58 58 55 45 42 42 45 45 52 55 55 48 35 35 35 35 42 39 39 35 35 29 29 26
0 3 0 0 0 0 6 10 10 10 42 48 48 65 68 71 68 61 58 58 52 48 39 35 35 39 42 42 45 39 39 39 32 35 32 32 35 32 39 39 32 19 16 10
0 0 3 0 0 3 13 13 39 61 65 61 58 65 65 52 52 48 55 42 35 29 32 29 32 35 39 39 39 35 29 35 39 26 19 19 19 19 23 23 29 23 13 10
3 16 13 13 10 26 32 45 48 58 61 65 58 58 55 45 42 23 29 29 23 26 26 26 29 32 32 32 32 26 23 19 16 16 19 13 13 13 13 16 19 16 13 10
16 13 16 19 19 29 26 29 32 48 58 52 45 39 42 32 26 26 29 19 23 23 26 19 26 23 26 26 19 23 23 19 16 16 16 16 6 10 3 3 3 3 3 3
6 3 13 19 16 26 19 23 32 35 45 35 39 32 23 26 23 26 23 19 19 19 19 19 19 23 16 13 13 13 16 16 16 16 16 13 10 6 6 3 3 3 3 3
6 13 6 16 16 23 26 26 26 26 32 29 29 26 19 23 26 19 19 19 19 19 16 23 19 13 10 10 10 10 16 10 16 10 10 10 10 6 3 3 3 0 0 0